TimeEDT,TemperatureF,Dew PointF,Humidity,Sea Level PressureIn,VisibilityMPH,Wind Direction,Wind SpeedMPH,Gust SpeedMPH,PrecipitationIn,Events,Conditions,WindDirDegrees,DateUTC
12:53 AM,44.1,39.0,82,30.08,10.0,West,9.2,-,N/A,,Mostly Cloudy,280,2012-09-23 04:53:00
1:53 AM,45.0,39.0,80,30.09,10.0,West,10.4,-,N/A,,Mostly Cloudy,280,2012-09-23 05:53:00
2:53 AM,43.0,37.0,80,30.11,10.0,West,8.1,-,N/A,,Partly Cloudy,270,2012-09-23 06:53:00
3:53 AM,42.1,37.0,82,30.11,10.0,West,8.1,-,N/A,,Clear,270,2012-09-23 07:53:00
4:53 AM,39.9,36.0,86,30.12,10.0,West,3.5,-,N/A,,Clear,260,2012-09-23 08:53:00
5:53 AM,37.9,35.1,89,30.13,10.0,WSW,5.8,-,N/A,,Clear,250,2012-09-23 09:53:00
6:53 AM,39.0,36.0,89,30.14,10.0,WSW,5.8,-,N/A,,Clear,240,2012-09-23 10:53:00
7:53 AM,37.9,34.0,86,30.14,10.0,WSW,6.9,-,N/A,,Clear,250,2012-09-23 11:53:00
8:53 AM,43.0,37.9,82,30.16,10.0,WSW,6.9,-,N/A,,Clear,250,2012-09-23 12:53:00
9:53 AM,48.9,39.0,69,30.17,10.0,WNW,11.5,-,N/A,,Clear,290,2012-09-23 13:53:00
10:53 AM,52.0,37.9,59,30.17,10.0,West,11.5,-,N/A,,Clear,270,2012-09-23 14:53:00
11:53 AM,54.0,36.0,51,30.17,10.0,West,17.3,24.2,N/A,,Mostly Cloudy,280,2012-09-23 15:53:00
12:53 PM,55.0,36.0,49,30.17,10.0,West,12.7,-,N/A,,Mostly Cloudy,280,2012-09-23 16:53:00
1:53 PM,55.0,34.0,45,30.16,10.0,West,12.7,18.4,N/A,,Partly Cloudy,260,2012-09-23 17:53:00
2:53 PM,53.1,36.0,52,30.17,10.0,WNW,16.1,25.3,0.00,Rain,Light Rain,290,2012-09-23 18:53:00
3:53 PM,52.0,39.0,61,30.17,10.0,WSW,16.1,-,0.00,,Overcast,250,2012-09-23 19:53:00
4:53 PM,48.9,41.0,74,30.18,10.0,West,8.1,-,0.00,Rain,Light Rain,280,2012-09-23 20:53:00
5:53 PM,48.0,39.0,71,30.19,9.0,West,9.2,-,0.00,Rain,Light Rain,280,2012-09-23 21:53:00
6:53 PM,48.0,39.9,74,30.20,10.0,WNW,10.4,-,0.01,,Overcast,290,2012-09-23 22:53:00
7:53 PM,46.0,39.9,79,30.20,10.0,WSW,5.8,-,0.00,,Overcast,250,2012-09-23 23:53:00
8:53 PM,46.0,39.9,79,30.20,10.0,West,6.9,-,N/A,,Overcast,260,2012-09-24 00:53:00
9:53 PM,43.0,39.0,86,30.22,10.0,West,5.8,-,N/A,,Mostly Cloudy,260,2012-09-24 01:53:00
10:53 PM,42.1,37.9,85,30.21,10.0,WSW,4.6,-,N/A,,Clear,240,2012-09-24 02:53:00
11:53 PM,39.9,37.9,93,30.21,10.0,SW,4.6,-,N/A,,Clear,230,2012-09-24 03:53:00